Location: Newark
(48.2308°N, 120.8549°W)
Time: 02:18:50
(UTC+00:00)

FENGYUN 1C DEB - Pass Details

Date: 04 February 2022
Orbit: 822 x 948 km, 99.2° (Epoch: 28 May)

Event Time Altitude Azimuth Distance (km) Brightness Sun altitude
Rises 04:56:21 0° 214° (SSW) 3,612 ? -38.1°
Reaches altitude 10° 04:59:49 10° 234° (SW) 2,667 ? -38.7°
Maximum altitude 05:03:27 17° 272° (W) 2,223 ? -39.2°
Drops below altitude 10° 05:07:05 10° 310° (NW) 2,649 ? -39.8°
Sets 05:10:32 0° 331° (NNW) 3,577 ? -40.3°
